Miscellaneous Local Product
Issued by NWS Hastings, NE

Home | Current Version | Previous Version | Graphics & Text | Print | Product List | Glossary On
Versions: 1 2 3 4 5 6 7 8 9 10 11 12 13 14 15 16 17 18 19 20 21 22 23 24 25 26 27 28 29 30 31 32 33 34 35 36 37 38 39 40 41 42 43 44 45 46 47 48 49 50
000
AXUS43 KGID 010302
MISGRI

GID CWA HOURLY WEATHER ROUNDUP
NATIONAL WEATHER SERVICE HASTINGS NE
1000 PM CDT TUE JUN 30 2015

NOTE: "FAIR" INDICATES FEW OR NO CLOUDS BELOW 12,000 FEET WITH NO
SIGNIFICANT WEATHER AND/OR OBSTRUCTIONS TO VISIBILITY.

...SOUTH CENTRAL NEBRASKA...

CITY           SKY/WX    TMP DP  RH WIND       PRES   REMARKS
GRAND ISLAND   MOCLDY    75  62  64 E13       29.86S
HASTINGS       MOCLDY    78  69  73 E10       29.84R
KEARNEY        MOCLDY    79  66  65 E12       29.84R
ORD            CLOUDY    73  60  63 E10       29.86R
YORK           CLOUDY    73  64  73 E16       29.86
AURORA         CLOUDY    74  63  68 E12       29.86R
LEXINGTON      CLOUDY    81  66  61 E6        29.83S
HOLDREGE       CLOUDY    80  60  50 E7        29.83R
HEBRON         CLOUDY    79  68  69 E6        29.83R

...NEBRASKA PANHANDLE...

CITY           SKY/WX    TMP DP  RH WIND       PRES   REMARKS
CHADRON        MOCLDY    74  67  78 NE3       29.91R
ALLIANCE       MOCLDY    75  64  68 N9        29.93R
SCOTTSBLUFF    MOCLDY    81  58  45 N6        29.95R
SIDNEY         MOCLDY    72  63  73 W7        29.97S

...WESTERN AND NORTH CENTRAL NEBRASKA...

CITY           SKY/WX    TMP DP  RH WIND       PRES   REMARKS
VALENTINE      MOCLDY    72  64  76 E12       29.89R
AINSWORTH      CLOUDY    70  63  80 SE14      29.89S
ONEILL         CLOUDY    72  64  75 E12       29.90
BROKEN BOW     MOCLDY    76  69  79 E10       29.86R
IMPERIAL       MOCLDY    79  64  60 CALM      29.88R
NORTH PLATTE   MOCLDY    79  69  71 E7        29.83S
MCCOOK         PTCLDY    85  58  39 E8        29.83R

...EASTERN NEBRASKA...

CITY           SKY/WX    TMP DP  RH WIND       PRES   REMARKS
NORFOLK        CLOUDY    70  64  81 E8        29.89S
SO SIOUX CITY  LGT RAIN  70  65  84 NE3       29.89S
TEKAMAH        TSTM      71  68  90 SE8       29.90R
COLUMBUS       CLOUDY   N/A N/A N/A E7        29.89R
ALBION         CLOUDY    70  64  79 E9        29.89S
OMAHA EPPLEY   CLOUDY    72  67  84 SE5       29.90R
OFFUTT AFB     LGT RAIN  70  66  88 E1        29.91R
MILLARD        LGT RAIN  71  66  84 CALM      29.91R
LINCOLN        CLOUDY    73  66  78 E9        29.88F
NEBRASKA CITY  CLOUDY    73  61  64 E5        29.91R
BEATRICE       CLOUDY    77  65  67 E9        29.86R
FALLS CITY     LGT RAIN  74  67  78 SE6       29.89R

...NORTHERN KANSAS...

CITY           SKY/WX    TMP DP  RH WIND       PRES   REMARKS
GOODLAND       PTCLDY    81  50  33 S9        29.93R
HILL CITY      PTCLDY    87  50  27 SW7       29.83R
NORTON         CLEAR     82  48  30 E5        29.83R
PHILLIPSBURG   CLEAR     88  54  31 E6        29.80S
SMITH CENTER   CLEAR     82  59  44 E9        29.80R
HAYS           CLEAR     88  52  29 SW13      29.84R
RUSSELL        PTCLDY    86  54  33 S12       29.81R
CONCORDIA      MOCLDY    83  67  58 E10       29.82R
SALINA         PTCLDY    84  60  44 S9        29.80S
TOPEKA         MOCLDY    80  68  66 E7        29.86S



USA.gov is the U.S. government's official web portal to all federal, state and local government web resources and services.